Location: Casilda
(33.0440°S, 61.1680°W)
Time: 11:31:34
(UTC-03:00)

ISS - Pass Details

Date: 19 October 2018
Orbit: 403 x 408 km, 51.6° (Epoch: 16 October)

Event Time Altitude Azimuth Distance (km) Brightness Sun altitude
Rises 21:02:56 0° 311° (NW) 2,325 0.3 -20.9°
Reaches altitude 10° 21:05:01 10° 309° (NW) 1,470 -0.7 -21.3°
Enters shadow 21:07:34 49° 293° (WNW) 536 -3.1 -21.7°
